sat.trackr.live / text

‹ back to catalog

PELICAN-5

NORAD 66667 · 2025-276B

PAYLOAD ACTIVE UNKNOWN

§ Identity

Operator
Country
US
Launch date
2025-11-28
Launch site
AFWTR
Launch vehicle
Mass (kg)
RCS (m²)

Purposes: earth_obs

External: N2YO · Heavens-Above · Gunter

§ Orbital elements

Epoch: 2026-09-18T23:11:59.098272Z

Period
93.73 min
Inclination
97.3802°
Eccentricity
0.0001132
Mean motion
15.36304782 rev/d
Perigee alt
456.3 km
Apogee alt
457.8 km
Semi-major
6,835.2 km
B*
1.6298e-4
RAAN
337.1985°
Arg perigee
164.3356°
Mean anomaly
195.7924°
Rev number
4,489

§ Raw data

PELICAN-51 66667U 25276B   26261.96665623  .00005686  00000+0  16298-3 0  99962 66667  97.3802 337.1985 0001132 164.3356 195.7924 15.36304782 44894

JSON: /api/v1/satellites/66667 · /tle

For live sub-satellite position, see the globe view (requires WebGL).

§ Visibility from observer

Set your observer location to see the next 7 days of passes ≥ 10°. The values pass through the URL so the page stays shareable.

No JS? Fill the form by hand. The geolocation button needs JavaScript.